sat.trackr.live / text

‹ back to catalog

STARLINK-4452

NORAD 53658 · 2022-105L

PAYLOAD ACTIVE UNKNOWN

§ Identity

Operator
Country
US
Launch date
2022-08-31
Launch site
AFWTR
Launch vehicle
Mass (kg)
RCS (m²)

Purposes: comms

External: N2YO · Heavens-Above · Gunter

§ Orbital elements

Epoch: 2026-09-20T21:27:39.039840Z

Period
93.91 min
Inclination
97.2847°
Eccentricity
0.0001620
Mean motion
15.33438771 rev/d
Perigee alt
464.5 km
Apogee alt
466.7 km
Semi-major
6,843.7 km
B*
4.7479e-5
RAAN
140.5651°
Arg perigee
90.8699°
Mean anomaly
269.2729°
Rev number
22,279

§ Raw data

STARLINK-44521 53658U 22105L   26263.89420185  .00001458  00000+0  47479-4 0  99952 53658  97.2847 140.5651 0001620  90.8699 269.2729 15.33438771222799

JSON: /api/v1/satellites/53658 · /tle

For live sub-satellite position, see the globe view (requires WebGL).

§ Visibility from observer

Set your observer location to see the next 7 days of passes ≥ 10°. The values pass through the URL so the page stays shareable.

No JS? Fill the form by hand. The geolocation button needs JavaScript.